[ hide orbit diagram ]
For accurate long-term ephemerides, please instead use our Horizons system.This orbit viewer was implemented using two-body methods, and hence should not be used for determining accurate long-term trajectories (over several years or decades) or planetary encounter circumstances.
Orbital Elements at Epoch 2459000.5 (2020-May-31.0) TDB
Reference: JPL 16 (heliocentric ecliptic J2000)
Element | Value | Uncertainty (1-sigma) | Units |
e | .1005953350145206 | 4.0942e-08 | |
a | 2.985741723558482 | 2.0406e-08 | au |
q | 2.685390034610285 | 1.3166e-07 | au |
i | 1.344802191522611 | 4.0561e-06 | deg |
node | 239.0615937264565 | 0.0002808 | deg |
peri | 200.8906004401915 | 0.0002838 | deg |
M | 254.5347172904516 | 4.2853e-05 | deg |
tp | 2459552.556849875772 (2021-Dec-04.05684988) | 0.00022698 | TDB |
period | 1884.415997846508 5.16 | 1.9319e-05 5.289e-08 | d yr |
n | .1910406196993681 | 1.9585e-09 | deg/d |
Q | 3.28609341250668 | 2.2459e-08 | au |
|
| | Orbit Determination Parameters
Additional Information
|
[ hide covariance matrix ]
Orbital Elements at Epoch 2457171.5 (2015-May-29.0) TDB
Reference: JPL 16 (heliocentric ecliptic J2000)
Element | Value | Uncertainty (1-sigma) | Units |
e | .1005742525931716 | 4.052e-08 | |
q | 2.686472488793612 | 1.3104e-07 | au |
tp | 2457650.271011593479 (2016-Sep-18.77101159) | 0.000218 | TDB |
node | 239.1912024755662 | 0.00028096 | deg |
peri | 197.8929727689953 | 0.00028398 | deg |
i | 1.341813243133873 | 4.0751e-06 | deg |
|
| | Orbit Determination Parameters
Additional Information
|
Orbit Covariance (6×6)
|
|
e |
q |
tp |
node |
peri |
i |
e |
1.641870880001362E-15 |
-5.267201607313211E-15 |
-1.144470399912856E-12 |
7.768147757170692E-15 |
-1.24242869565227E-13 |
-2.821891351115525E-16 |
q |
-5.267201607313211E-15 |
1.717222270647444E-14 |
5.488758400751509E-12 |
-1.045636974781268E-14 |
7.230079073893863E-13 |
1.090260833705309E-15 |
tp |
-1.144470399912856E-12 |
5.488758400751509E-12 |
4.752424651940898E-8 |
1.347573201952469E-10 |
9.064148908177485E-9 |
4.147751510693597E-12 |
node |
7.768147757170692E-15 |
-1.045636974781268E-14 |
1.347573201952469E-10 |
7.893826417436993E-8 |
-7.889065624393232E-8 |
-4.294649529885474E-10 |
peri |
-1.24242869565227E-13 |
7.230079073893863E-13 |
9.064148908177485E-9 |
-7.889065624393232E-8 |
8.064228749585927E-8 |
4.301366286078079E-10 |
i |
-2.821891351115525E-16 |
1.090260833705309E-15 |
4.147751510693597E-12 |
-4.294649529885474E-10 |
4.301366286078079E-10 |
1.660623956737747E-11 |
|
Physical Parameter Table
Parameter |
Symbol |
Value |
Units |
Sigma |
Reference |
Notes |
absolute magnitude |
H |
15.5 |
|
n/a |
MPO264168 |
|
|
123314 (2000 VC8) Discovered 2000-Nov-01 by LINEAR at Socorro |
Reference: 20060314/Numbers.arc | Last Updated: 2006-03-23 |
|
[ show close-approach data ]
|